Location: Martz Observatory
(42.0083°N, 79.0667°W)
Time: 10:05:43
(UTC-05:00)

Meteor 1-23 Rocket - Visible Passes

Search period start: 01 March 2015 00:00
Search period end: 11 March 2015 01:00
Orbit: 840 x 887 km, 81.3° (Epoch: 28 February)

Date Brightness Start Highest point End Pass type
(mag) Time Alt. Az. Time Alt. Az. Time Alt. Az.
01 Mar 7.7 05:41:57 10° ESE 05:43:42 12° E 05:45:49 10° ENE visible
01 Mar 7.4 19:46:08 10° NW 19:49:11 14° W 19:51:55 10° WSW visible
02 Mar 7.8 05:33:47 10° E 05:35:26 12° E 05:37:28 10° ENE visible
02 Mar 7.4 19:37:50 10° NW 19:40:55 15° W 19:43:42 10° WSW visible
03 Mar 7.8 05:25:37 10° E 05:27:11 11° E 05:29:07 10° ENE visible
03 Mar 7.5 19:29:32 10° NW 19:32:39 15° W 19:35:28 10° WSW visible
04 Mar 7.8 05:17:28 10° E 05:18:55 11° E 05:20:47 10° ENE visible
04 Mar 7.5 19:21:14 10° NW 19:24:23 15° W 19:27:15 10° WSW visible
05 Mar 7.8 05:09:19 10° E 05:10:40 11° E 05:12:25 10° ENE visible
05 Mar 7.5 19:12:55 10° NW 19:16:07 15° W 19:19:01 10° WSW visible
06 Mar 7.8 05:01:10 10° E 05:02:24 11° E 05:04:02 10° ENE visible
06 Mar 7.5 19:04:38 10° NW 19:07:51 15° W 19:10:48 10° WSW visible
07 Mar 7.7 04:53:03 10° E 04:54:09 11° E 04:55:39 10° ENE visible
07 Mar 7.4 18:56:19 10° NW 18:59:35 15° W 19:02:34 10° WSW visible
08 Mar 7.7 05:44:55 10° E 05:45:53 11° E 05:47:15 10° ENE visible
08 Mar 7.4 19:48:01 10° NW 19:51:19 16° W 19:54:21 10° WSW visible
09 Mar 7.7 05:36:50 10° E 05:37:37 10° E 05:38:50 10° ENE visible
09 Mar 7.4 19:39:43 10° NW 19:43:03 16° W 19:46:08 10° WSW visible
10 Mar 7.6 05:28:45 10° E 05:29:21 10° E 05:30:22 10° ENE visible
10 Mar 4.4 07:06:04 10° S 07:11:47 84° E 07:17:29 10° N visible
